Content
SEND FEEDBACK

Daily
Averages
Monthly
Summary
United States of America

GRAND FORKS, NORTH DAKOTA


Home > North America > United States > North Dakota
Elevation: 913 feet     Latitude: 47 58N     Longitude: 097 24W

WEATHER
 
SELECT A DAY
Number of Records: 198,436;   Date Range: 1/1/95 - 9/16/14
 
SHARE

PRINT THIS DATA

[ ← Previous Day ]
WEATHER ALMANAC - JANUARY 31, 2013
[ Next Day → ]
[ °C ]   °F
Weather ElementAverageHighLow
Temperature-9.8 °F-7.1 °F (1:53 am)-17 °F (10:53 pm)
Dewpoint-17.2 °F-11.9 °F (1:53 am)-24 °F (10:53 pm)
Humidity70.1 %79 % (1:53 am)59 % (3:50 pm)
Barometer30.22 in30.38 in (7:53 pm)29.94 in (1:02 am)
Wind Speed16.8 mph24.2 mph (6:53 am)
Wind Gust32.2 mph (6:53 am)
Weather ElementAverage
Visibility5.5 mi
Wind DirectionNW (320 °)

Weather ElementTotal
Precipitation---
Heating Degree Days77.1 (Base 65)
Averaged from 32 records on January 31, 2013
WEATHER CONDITIONS BREAKOUT
WIND DIRECTION BREAKOUT
WEATHER BY HOUR - JANUARY 31, 2013
[ °C ]   °F
Local TimeTemperatureDewpointHumidityBarometerVisibilityWind DirectionWind SpeedGust SpeedPrecipitationEventsConditions
1:02 AM-7.6 °F-13.0 °F77 %29.94 in3.0 miNW (320°)18.4 mphSnowBlowing Snow
1:17 AM-7.6 °F-13.0 °F77 %29.95 in2.0 miNW (320°)20.7 mph0.00 inSnowLight Snow
1:24 AM-7.6 °F-13.0 °F77 %29.95 in1.5 miNW (320°)20.7 mph0.00 inSnowLight Snow
1:53 AM-7.1 °F-11.9 °F79 %30.04 in1.0 miNW (320°)16.1 mph0.00 inSnowLight Snow
2:53 AM-8.0 °F-13.0 °F79 %30.06 in1.0 miNW (320°)17.3 mph0.00 inSnowLight Snow
3:53 AM-7.1 °F-13.0 °F75 %30.08 in1.0 miNNW (340°)20.7 mph28.8 mph0.00 inSnowLight Snow
4:53 AM-8.0 °F-13.0 °F79 %30.11 in1.5 miNNW (340°)21.9 mph29.9 mph0.00 inSnowBlowing Snow
5:46 AM-7.6 °F-14.8 °F71 %30.05 in1.8 miNNW (340°)21.9 mph0.00 inSnowBlowing Snow
5:51 AM-7.6 °F-14.8 °F71 %30.06 in2.0 miNNW (340°)21.9 mph0.00 inSnowBlowing Snow
5:53 AM-8.0 °F-13.0 °F79 %30.14 in2.0 miNNW (340°)20.7 mph0.00 inSnowBlowing Snow
6:29 AM-7.6 °F-14.8 °F71 %30.08 in1.5 miNNW (330°)19.6 mph28.8 mphSnowBlowing Snow
6:53 AM-9.0 °F-15.0 °F75 %30.18 in2.0 miNNW (330°)24.2 mph32.2 mphSnowBlowing Snow
7:53 AM-9.0 °F-15.0 °F75 %30.22 in3.0 miNNW (330°)17.3 mph25.3 mphSnowBlowing Snow
8:53 AM-9.9 °F-16.1 °F74 %30.25 in1.5 miNNW (330°)19.6 mphSnowBlowing Snow
9:26 AM-9.4 °F-16.6 °F71 %30.18 in3.0 miNNW (330°)18.4 mphSnowBlowing Snow
9:53 AM-9.0 °F-17.0 °F68 %30.28 in3.0 miNNW (330°)20.7 mphSnowBlowing Snow
10:17 AM-9.4 °F-16.6 °F71 %30.20 in3.0 miNNW (340°)18.4 mphSnowBlowing Snow
10:53 AM-9.0 °F-17.0 °F68 %30.30 in3.0 miNNW (330°)21.9 mphSnowBlowing Snow
11:53 AM-8.0 °F-18.0 °F61 %30.31 in10.0 miNNW (330°)20.7 mphMostly Cloudy
12:53 PM-8.0 °F-17.0 °F65 %30.32 in10.0 miNW (320°)17.3 mphOvercast
1:53 PM-9.0 °F-17.0 °F68 %30.33 in10.0 miWNW (300°)17.3 mphMostly Cloudy
2:53 PM-9.0 °F-18.9 °F62 %30.34 in10.0 miNW (310°)17.3 mphMostly Cloudy
3:50 PM-9.4 °F-20.2 °F59 %30.26 in10.0 miNW (320°)16.1 mphScattered Clouds
3:53 PM-9.9 °F-20.0 °F61 %30.35 in10.0 miNNW (330°)17.3 mphPartly Cloudy
4:53 PM-9.9 °F-20.9 °F59 %30.36 in10.0 miNW (320°)15.0 mphPartly Cloudy
5:53 PM-11.9 °F-20.9 °F64 %30.37 in10.0 miWNW (300°)12.7 mphClear
6:53 PM-13.0 °F-22.0 °F64 %30.37 in10.0 miNW (310°)11.5 mphClear
7:53 PM-14.1 °F-22.0 °F68 %30.38 in10.0 miWNW (300°)6.9 mphClear
8:53 PM-15.0 °F-23.1 °F67 %30.37 in10.0 miWNW (300°)6.9 mphClear
9:53 PM-16.1 °F-23.1 °F71 %30.37 in10.0 miWNW (290°)8.1 mphClear
10:53 PM-17.0 °F-24.0 °F70 %30.36 in10.0 miWest (280°)6.9 mphClear
11:53 PM-16.1 °F-24.0 °F67 %30.34 in10.0 miWest (280°)3.5 mphClear
Hourly data recorded from KGFK, located miles away from Grand Forks, North Dakota







STORIES FROM OUR PARTNERS